"read_dt","SO2 (ppb)","flags","PMT voltage (V)","lamp voltage (V)","lamp intensity (Hz)","internal temp (C)","react chamber temp (C)","sample flow (l/min)","pres (mmHg)","SO2 bkg (ppb)","SO2 coefficient"
2016-12-01 00:00:00,2758E-3,5C000000,-0724,0833,12061,025.8,045.4,0.441,740.1,01.18,0.508
2016-12-01 00:01:00,2635E-3,5C000000,-0724,0833,12200,025.8,045.4,0.440,740.0,01.18,0.508
2016-12-01 00:02:00,2470E-3,5C000000,-0724,0833,12029,025.8,045.4,0.441,740.0,01.18,0.508
2016-12-01 00:03:00,2552E-3,5C000000,-0724,0833,12150,025.8,045.4,0.441,740.0,01.18,0.508
2016-12-01 00:04:00,2597E-3,5C000000,-0724,0833,12043,025.8,045.4,0.440,740.0,01.18,0.508
2016-12-01 00:05:00,2539E-3,5C000000,-0724,0833,12089,025.8,045.4,0.441,740.0,01.18,0.508
2016-12-01 00:06:00,2561E-3,5C000000,-0724,0833,12093,025.8,045.4,0.440,740.0,01.18,0.508
2016-12-01 00:07:00,2497E-3,5C000000,-0724,0833,12188,025.8,045.4,0.441,740.0,01.18,0.508
2016-12-01 00:08:00,2504E-3,5C000000,-0724,0833,12161,025.8,045.4,0.441,740.0,01.18,0.508
2016-12-01 00:09:00,2419E-3,5C000000,-0724,0834,12036,025.8,045.4,0.440,740.0,01.18,0.508
2016-12-01 00:10:00,2242E-3,5C000000,-0724,0833,12108,025.8,045.4,0.441,740.0,01.18,0.508
2016-12-01 00:11:00,2304E-3,5C000000,-0724,0833,12054,025.8,045.4,0.440,740.0,01.18,0.508
2016-12-01 00:12:00,2202E-3,5C000000,-0724,0833,12259,025.8,045.4,0.441,740.0,01.18,0.508
2016-12-01 00:13:00,2380E-3,5C000000,-0724,0833,12117,025.8,045.4,0.440,740.0,01.18,0.508
2016-12-01 00:14:00,2481E-3,5C000000,-0724,0833,11999,025.8,045.4,0.441,740.0,01.18,0.508
2016-12-01 00:15:00,2190E-3,5C000000,-0724,0833,12077,025.8,045.4,0.441,740.0,01.18,0.508
2016-12-01 00:16:00,2218E-3,5C000000,-0724,0834,11957,025.8,045.4,0.440,740.0,01.18,0.508
2016-12-01 00:17:00,2293E-3,5C000000,-0724,0833,12071,025.8,045.4,0.441,740.0,01.18,0.508
2016-12-01 00:18:00,2299E-3,5C000000,-0724,0833,12087,025.8,045.4,0.440,740.0,01.18,0.508
2016-12-01 00:19:00,2193E-3,5C000000,-0724,0833,12043,025.8,045.4,0.441,740.0,01.18,0.508
2016-12-01 00:20:00,2273E-3,5C000000,-0724,0833,11933,025.8,045.4,0.440,740.0,01.18,0.508
2016-12-01 00:21:00,2121E-3,5C000000,-0724,0833,12132,025.8,045.4,0.441,740.0,01.18,0.508
2016-12-01 00:22:00,2339E-3,5C000000,-0724,0834,12031,025.8,045.4,0.441,740.0,01.18,0.508
2016-12-01 00:23:00,2162E-3,5C000000,-0724,0834,12128,025.8,045.4,0.440,740.0,01.18,0.508
2016-12-01 00:24:00,2127E-3,5C000000,-0724,0833,12122,025.8,045.4,0.441,740.0,01.18,0.508
2016-12-01 00:25:00,2238E-3,5C000000,-0724,0834,12139,025.8,045.4,0.440,740.0,01.18,0.508
2016-12-01 00:26:00,2073E-3,5C000000,-0724,0833,12143,025.7,045.4,0.441,740.0,01.18,0.508
2016-12-01 00:27:00,2304E-3,5C000000,-0724,0833,12047,025.7,045.4,0.440,739.9,01.18,0.508
2016-12-01 00:28:00,2314E-3,5C000000,-0724,0834,12047,025.7,045.4,0.441,740.0,01.18,0.508
2016-12-01 00:29:00,2173E-3,5C000000,-0724,0834,12028,025.7,045.4,0.441,739.9,01.18,0.508
2016-12-01 00:30:00,2225E-3,5C000000,-0724,0834,12047,025.7,045.4,0.441,740.0,01.18,0.508
2016-12-01 00:31:00,2328E-3,5C000000,-0724,0834,12028,025.7,045.4,0.441,740.0,01.18,0.508
2016-12-01 00:32:00,2221E-3,5C000000,-0724,0834,12204,025.7,045.4,0.440,740.0,01.18,0.508
2016-12-01 00:33:00,2340E-3,5C000000,-0724,0833,12150,025.7,045.4,0.441,740.0,01.18,0.508
2016-12-01 00:34:00,2286E-3,5C000000,-0724,0833,12142,025.7,045.4,0.440,740.0,01.18,0.508
2016-12-01 00:35:00,2152E-3,5C000000,-0724,0834,12213,025.7,045.4,0.441,739.9,01.18,0.508
2016-12-01 00:36:00,2276E-3,5C000000,-0724,0833,12058,025.7,045.4,0.441,740.0,01.18,0.508
2016-12-01 00:37:00,2333E-3,5C000000,-0724,0833,12215,025.7,045.4,0.441,740.0,01.18,0.508
2016-12-01 00:38:00,2337E-3,5C000000,-0724,0833,12174,025.7,045.4,0.441,740.0,01.18,0.508
2016-12-01 00:39:00,2395E-3,5C000000,-0724,0834,11981,025.7,045.4,0.441,740.0,01.18,0.508
2016-12-01 00:40:00,2243E-3,5C000000,-0724,0833,12208,025.7,045.4,0.441,739.9,01.18,0.508
2016-12-01 00:41:00,2159E-3,5C000000,-0724,0833,12163,025.7,045.4,0.440,740.0,01.18,0.508
2016-12-01 00:42:00,2292E-3,5C000000,-0724,0833,12132,025.7,045.4,0.441,739.9,01.18,0.508
2016-12-01 00:43:00,2236E-3,5C000000,-0724,0833,11935,025.7,045.4,0.440,739.9,01.18,0.508
2016-12-01 00:44:00,2079E-3,5C000000,-0724,0834,12091,025.7,045.4,0.441,739.9,01.18,0.508
2016-12-01 00:45:00,2183E-3,5C000000,-0724,0833,12174,025.7,045.4,0.441,739.9,01.18,0.508
2016-12-01 00:46:00,2149E-3,5C000000,-0724,0833,12180,025.7,045.4,0.441,739.9,01.18,0.508
2016-12-01 00:47:00,2110E-3,5C000000,-0724,0833,12113,025.7,045.4,0.441,739.9,01.18,0.508
2016-12-01 00:48:00,2194E-3,5C000000,-0724,0833,12257,025.7,045.4,0.441,739.9,01.18,0.508
2016-12-01 00:49:00,2055E-3,5C000000,-0724,0834,12054,025.7,045.4,0.441,739.9,01.18,0.508
2016-12-01 00:50:00,2112E-3,5C000000,-0724,0834,12109,025.7,045.4,0.441,739.9,01.18,0.508
2016-12-01 00:51:00,2264E-3,5C000000,-0724,0833,12150,025.7,045.4,0.441,739.9,01.18,0.508
2016-12-01 00:52:00,2254E-3,5C000000,-0724,0834,12125,025.7,045.4,0.440,739.9,01.18,0.508
2016-12-01 00:53:00,2112E-3,5C000000,-0724,0834,12044,025.7,045.4,0.441,739.9,01.18,0.508
2016-12-01 00:54:00,2010E-3,5C000000,-0724,0834,11945,025.7,045.4,0.440,739.9,01.18,0.508
2016-12-01 00:55:00,2134E-3,5C000000,-0724,0833,12078,025.7,045.4,0.441,739.9,01.18,0.508
2016-12-01 00:56:00,1949E-3,5C000000,-0724,0834,12146,025.7,045.4,0.440,739.9,01.18,0.508
2016-12-01 00:57:00,2222E-3,5C000000,-0724,0833,12176,025.7,045.4,0.441,739.9,01.18,0.508
2016-12-01 00:58:00,2075E-3,5C000000,-0724,0833,11970,025.7,045.4,0.440,739.9,01.18,0.508
2016-12-01 00:59:00,2007E-3,5C000000,-0724,0833,12002,025.7,045.4,0.441,739.9,01.18,0.508
2016-12-01 01:00:00,2189E-3,5C000000,-0724,0833,11937,025.7,045.4,0.441,739.9,01.18,0.508
2016-12-01 01:01:00,1989E-3,5C000000,-0724,0833,12006,025.7,045.4,0.441,739.9,01.18,0.508
2016-12-01 01:02:00,2113E-3,5C000000,-0724,0834,12029,025.7,045.4,0.441,739.8,01.18,0.508
2016-12-01 01:03:00,2085E-3,5C000000,-0724,0833,12083,025.7,045.4,0.441,739.8,01.18,0.508
2016-12-01 01:04:00,2107E-3,5C000000,-0724,0834,12178,025.7,045.4,0.441,739.9,01.18,0.508
2016-12-01 01:05:00,2153E-3,5C000000,-0724,0833,12070,025.7,045.4,0.441,739.9,01.18,0.508
2016-12-01 01:06:00,2059E-3,5C000000,-0724,0834,12157,025.7,045.4,0.441,739.8,01.18,0.508
2016-12-01 01:07:00,2068E-3,5C000000,-0724,0834,12184,025.7,045.4,0.440,739.9,01.18,0.508
2016-12-01 01:08:00,2091E-3,5C000000,-0724,0833,12069,025.7,045.4,0.441,739.9,01.18,0.508
2016-12-01 01:09:00,2091E-3,5C000000,-0724,0833,12154,025.7,045.4,0.440,739.9,01.18,0.508
2016-12-01 01:10:00,2060E-3,5C000000,-0724,0834,12029,025.7,045.4,0.441,739.9,01.18,0.508
2016-12-01 01:11:00,2003E-3,5C000000,-0724,0833,11963,025.7,045.4,0.440,739.9,01.18,0.508
2016-12-01 01:12:00,2187E-3,5C000000,-0724,0833,11974,025.7,045.4,0.441,739.9,01.18,0.508
2016-12-01 01:13:00,2259E-3,5C000000,-0724,0833,12142,025.7,045.4,0.441,739.9,01.18,0.508
2016-12-01 01:14:00,2108E-3,5C000000,-0724,0833,11963,025.7,045.4,0.441,739.9,01.18,0.508
2016-12-01 01:15:00,2008E-3,5C000000,-0724,0833,12194,025.7,045.4,0.441,739.9,01.18,0.508
2016-12-01 01:16:00,2017E-3,5C000000,-0724,0834,12235,025.6,045.4,0.441,739.9,01.18,0.508
2016-12-01 01:17:00,2136E-3,5C000000,-0724,0833,11982,025.7,045.4,0.441,739.9,01.18,0.508
2016-12-01 01:18:00,2063E-3,5C000000,-0724,0833,12159,025.6,045.4,0.441,739.8,01.18,0.508
2016-12-01 01:19:00,2041E-3,5C000000,-0724,0833,12124,025.6,045.4,0.441,739.8,01.18,0.508
2016-12-01 01:20:00,2021E-3,5C000000,-0724,0833,11994,025.7,045.4,0.441,739.8,01.18,0.508
2016-12-01 01:21:00,2092E-3,5C000000,-0724,0834,12089,025.6,045.4,0.441,739.8,01.18,0.508
2016-12-01 01:22:00,2090E-3,5C000000,-0724,0834,12084,025.6,045.4,0.440,739.8,01.18,0.508
2016-12-01 01:23:00,2289E-3,5C000000,-0724,0833,11868,025.6,045.4,0.441,739.8,01.18,0.508
2016-12-01 01:24:00,2073E-3,5C000000,-0724,0833,12226,025.6,045.4,0.440,739.8,01.18,0.508
2016-12-01 01:25:00,2196E-3,5C000000,-0724,0833,11988,025.6,045.4,0.441,739.8,01.18,0.508
2016-12-01 01:26:00,2180E-3,5C000000,-0724,0833,12130,025.6,045.4,0.440,739.8,01.18,0.508
2016-12-01 01:27:00,2089E-3,5C000000,-0724,0834,12159,025.6,045.4,0.441,739.8,01.18,0.508
2016-12-01 01:28:00,2015E-3,5C000000,-0724,0834,12184,025.6,045.4,0.440,739.7,01.18,0.508
2016-12-01 01:29:00,2088E-3,5C000000,-0724,0833,12018,025.6,045.4,0.441,739.7,01.18,0.508
2016-12-01 01:30:00,1982E-3,5C000000,-0724,0833,12050,025.6,045.4,0.441,739.8,01.18,0.508
2016-12-01 01:31:00,2214E-3,5C000000,-0724,0833,12217,025.6,045.4,0.441,739.8,01.18,0.508
2016-12-01 01:32:00,2087E-3,5C000000,-0724,0834,12110,025.6,045.4,0.441,739.8,01.18,0.508
2016-12-01 01:33:00,2067E-3,5C000000,-0724,0833,12151,025.6,045.4,0.441,739.8,01.18,0.508
2016-12-01 01:34:00,2050E-3,5C000000,-0724,0833,12170,025.6,045.4,0.441,739.8,01.18,0.508
2016-12-01 01:35:00,2105E-3,5C000000,-0724,0833,12137,025.6,045.4,0.441,739.8,01.18,0.508
2016-12-01 01:36:00,1878E-3,5C000000,-0724,0833,12157,025.6,045.4,0.441,739.8,01.18,0.508
2016-12-01 01:37:00,1990E-3,5C000000,-0724,0833,12053,025.6,045.4,0.441,739.8,01.18,0.508
2016-12-01 01:38:00,2118E-3,5C000000,-0724,0833,12070,025.6,045.4,0.441,739.8,01.18,0.508
2016-12-01 01:39:00,1959E-3,5C000000,-0724,0833,11971,025.6,045.4,0.441,739.8,01.18,0.508
2016-12-01 01:40:00,2057E-3,5C000000,-0724,0833,12141,025.6,045.4,0.441,739.8,01.18,0.508
2016-12-01 01:41:00,2018E-3,5C000000,-0724,0833,12103,025.6,045.4,0.441,739.7,01.18,0.508
2016-12-01 01:42:00,1957E-3,5C000000,-0724,0833,12140,025.6,045.4,0.441,739.7,01.18,0.508
2016-12-01 01:43:00,2022E-3,5C000000,-0724,0834,12076,025.6,045.4,0.441,739.7,01.18,0.508
2016-12-01 01:44:00,2010E-3,5C000000,-0724,0834,12119,025.6,045.4,0.441,739.7,01.18,0.508
2016-12-01 01:45:00,1952E-3,5C000000,-0724,0834,11863,025.6,045.4,0.441,739.7,01.18,0.508
2016-12-01 01:46:00,1975E-3,5C000000,-0724,0833,11976,025.6,045.4,0.441,739.7,01.18,0.508
2016-12-01 01:47:00,2040E-3,5C000000,-0724,0833,12177,025.6,045.4,0.441,739.7,01.18,0.508
2016-12-01 01:48:00,2049E-3,5C000000,-0724,0834,12163,025.6,045.4,0.441,739.7,01.18,0.508
2016-12-01 01:49:00,1842E-3,5C000000,-0724,0833,12128,025.6,045.4,0.441,739.7,01.18,0.508
2016-12-01 01:50:00,1917E-3,5C000000,-0724,0833,12006,025.6,045.4,0.441,739.7,01.18,0.508
2016-12-01 01:51:00,1916E-3,5C000000,-0724,0833,12090,025.6,045.4,0.441,739.7,01.18,0.508
2016-12-01 01:52:00,1855E-3,5C000000,-0724,0833,12063,025.6,045.4,0.441,739.7,01.18,0.508
2016-12-01 01:53:00,1903E-3,5C000000,-0724,0833,12198,025.6,045.4,0.441,739.7,01.18,0.508
2016-12-01 01:54:00,1977E-3,5C000000,-0724,0833,12185,025.6,045.4,0.441,739.7,01.18,0.508
2016-12-01 01:55:00,1894E-3,5C000000,-0724,0833,12105,025.6,045.4,0.441,739.7,01.18,0.508
2016-12-01 01:56:00,1883E-3,5C000000,-0724,0833,12231,025.6,045.4,0.441,739.7,01.18,0.508
2016-12-01 01:57:00,1995E-3,5C000000,-0724,0833,12000,025.6,045.4,0.441,739.7,01.18,0.508
2016-12-01 01:58:00,1879E-3,5C000000,-0724,0833,12048,025.6,045.4,0.441,739.7,01.18,0.508
2016-12-01 01:59:00,1936E-3,5C000000,-0724,0835,12142,025.6,045.4,0.441,739.7,01.18,0.508
2016-12-01 02:00:00,1919E-3,5C000000,-0724,0834,12242,025.6,045.4,0.441,739.7,01.18,0.508
2016-12-01 02:01:00,2071E-3,5C000000,-0724,0834,12054,025.6,045.4,0.441,739.7,01.18,0.508
2016-12-01 02:02:00,1930E-3,5C000000,-0724,0834,12120,025.6,045.4,0.441,739.7,01.18,0.508
2016-12-01 02:03:00,2042E-3,5C000000,-0724,0834,12120,025.6,045.4,0.441,739.6,01.18,0.508
2016-12-01 02:04:00,1965E-3,5C000000,-0724,0834,11996,025.6,045.4,0.441,739.6,01.18,0.508
2016-12-01 02:05:00,2049E-3,5C000000,-0724,0833,12064,025.6,045.4,0.441,739.6,01.18,0.508
2016-12-01 02:06:00,1880E-3,5C000000,-0724,0834,12069,025.6,045.4,0.441,739.6,01.18,0.508
2016-12-01 02:07:00,1936E-3,5C000000,-0724,0833,12132,025.6,045.4,0.441,739.6,01.18,0.508
2016-12-01 02:08:00,1968E-3,5C000000,-0724,0833,12130,025.6,045.4,0.441,739.6,01.18,0.508
2016-12-01 02:09:00,1885E-3,5C000000,-0724,0833,11992,025.6,045.4,0.441,739.6,01.18,0.508
2016-12-01 02:10:00,2111E-3,5C000000,-0724,0833,12116,025.6,045.4,0.441,739.6,01.18,0.508
2016-12-01 02:11:00,1976E-3,5C000000,-0724,0834,12154,025.6,045.4,0.441,739.6,01.18,0.508
2016-12-01 02:12:00,1975E-3,5C000000,-0724,0834,12120,025.6,045.4,0.441,739.6,01.18,0.508
2016-12-01 02:13:00,1982E-3,5C000000,-0724,0832,12174,025.6,045.4,0.441,739.6,01.18,0.508
2016-12-01 02:14:00,1993E-3,5C000000,-0724,0833,11956,025.6,045.4,0.440,739.6,01.18,0.508
2016-12-01 02:15:00,2069E-3,5C000000,-0724,0833,11944,025.6,045.4,0.441,739.6,01.18,0.508
2016-12-01 02:16:00,1840E-3,5C000000,-0724,0833,12158,025.6,045.4,0.441,739.6,01.18,0.508
2016-12-01 02:17:00,2024E-3,5C000000,-0724,0832,12204,025.5,045.4,0.441,739.6,01.18,0.508
2016-12-01 02:18:00,1977E-3,5C000000,-0724,0834,12133,025.5,045.4,0.440,739.6,01.18,0.508
2016-12-01 02:19:00,1985E-3,5C000000,-0724,0833,12134,025.5,045.4,0.441,739.6,01.18,0.508
2016-12-01 02:20:00,1993E-3,5C000000,-0724,0833,12087,025.5,045.4,0.441,739.6,01.18,0.508
2016-12-01 02:21:00,2052E-3,5C000000,-0724,0834,12192,025.5,045.4,0.441,739.6,01.18,0.508
2016-12-01 02:22:00,2063E-3,5C000000,-0724,0833,12125,025.5,045.4,0.440,739.6,01.18,0.508
2016-12-01 02:23:00,2052E-3,5C000000,-0724,0833,12128,025.5,045.4,0.441,739.6,01.18,0.508
2016-12-01 02:24:00,2004E-3,5C000000,-0724,0833,12027,025.5,045.4,0.441,739.6,01.18,0.508
2016-12-01 02:25:00,1908E-3,5C000000,-0724,0833,12116,025.5,045.4,0.441,739.6,01.18,0.508
2016-12-01 02:26:00,1985E-3,5C000000,-0724,0833,12158,025.5,045.4,0.441,739.6,01.18,0.508
2016-12-01 02:27:00,2177E-3,5C000000,-0724,0834,12050,025.5,045.4,0.441,739.5,01.18,0.508
2016-12-01 02:28:00,2042E-3,5C000000,-0724,0834,12119,025.5,045.4,0.441,739.5,01.18,0.508
2016-12-01 02:29:00,2035E-3,5C000000,-0724,0833,11942,025.5,045.4,0.441,739.5,01.18,0.508
2016-12-01 02:30:00,2099E-3,5C000000,-0724,0833,12166,025.5,045.4,0.441,739.5,01.18,0.508
2016-12-01 02:31:00,1967E-3,5C000000,-0724,0833,12078,025.5,045.4,0.441,739.5,01.18,0.508
2016-12-01 02:32:00,1958E-3,5C000000,-0724,0834,12181,025.5,045.4,0.441,739.5,01.18,0.508
2016-12-01 02:33:00,2034E-3,5C000000,-0724,0833,12162,025.5,045.4,0.441,739.5,01.18,0.508
2016-12-01 02:34:00,2096E-3,5C000000,-0724,0833,12072,025.5,045.4,0.441,739.5,01.18,0.508
2016-12-01 02:35:00,2099E-3,5C000000,-0724,0833,12088,025.5,045.4,0.441,739.5,01.18,0.508
2016-12-01 02:36:00,2138E-3,5C000000,-0724,0833,12156,025.5,045.4,0.441,739.5,01.18,0.508
2016-12-01 02:37:00,1957E-3,5C000000,-0724,0833,12197,025.5,045.4,0.440,739.5,01.18,0.508
2016-12-01 02:38:00,2101E-3,5C000000,-0724,0833,12056,025.5,045.4,0.441,739.5,01.18,0.508
2016-12-01 02:39:00,2100E-3,5C000000,-0724,0833,12146,025.5,045.4,0.441,739.5,01.18,0.508
2016-12-01 02:40:00,2051E-3,5C000000,-0724,0833,12161,025.5,045.4,0.441,739.5,01.18,0.508
2016-12-01 02:41:00,1938E-3,5C000000,-0724,0833,12171,025.5,045.4,0.441,739.5,01.18,0.508
2016-12-01 02:42:00,1981E-3,5C000000,-0724,0833,12086,025.5,045.4,0.441,739.5,01.18,0.508
2016-12-01 02:43:00,2110E-3,5C000000,-0724,0833,11936,025.5,045.4,0.441,739.5,01.18,0.508
2016-12-01 02:44:00,2080E-3,5C000000,-0724,0834,12124,025.5,045.4,0.441,739.5,01.18,0.508
2016-12-01 02:45:00,2018E-3,5C000000,-0724,0833,12114,025.5,045.3,0.441,739.5,01.18,0.508
2016-12-01 02:46:00,1977E-3,5C000000,-0724,0833,12082,025.5,045.4,0.441,739.5,01.18,0.508
2016-12-01 02:47:00,2102E-3,5C000000,-0724,0833,12120,025.5,045.4,0.441,739.5,01.18,0.508
2016-12-01 02:48:00,2068E-3,5C000000,-0724,0833,12011,025.5,045.4,0.440,739.5,01.18,0.508
2016-12-01 02:49:00,2151E-3,5C000000,-0724,0834,12085,025.5,045.4,0.441,739.5,01.18,0.508
2016-12-01 02:50:00,2014E-3,5C000000,-0724,0833,11985,025.5,045.4,0.440,739.5,01.18,0.508
2016-12-01 02:51:00,1871E-3,5C000000,-0724,0834,12165,025.5,045.4,0.441,739.5,01.18,0.508
2016-12-01 02:52:00,1959E-3,5C000000,-0724,0834,12196,025.5,045.4,0.441,739.5,01.18,0.508
2016-12-01 02:53:00,2121E-3,5C000000,-0724,0833,12098,025.5,045.4,0.441,739.5,01.18,0.508
2016-12-01 02:54:00,2028E-3,5C000000,-0724,0833,12064,025.5,045.4,0.441,739.5,01.18,0.508
2016-12-01 02:55:00,1975E-3,5C000000,-0724,0834,12142,025.5,045.4,0.441,739.5,01.18,0.508
2016-12-01 02:56:00,1917E-3,5C000000,-0724,0833,12210,025.5,045.4,0.441,739.5,01.18,0.508
2016-12-01 02:57:00,1967E-3,5C000000,-0724,0833,12141,025.5,045.4,0.441,739.5,01.18,0.508
2016-12-01 02:58:00,2004E-3,5C000000,-0724,0832,12067,025.5,045.4,0.441,739.5,01.18,0.508
2016-12-01 02:59:00,1955E-3,5C000000,-0724,0833,12049,025.5,045.4,0.441,739.5,01.18,0.508
2016-12-01 03:00:00,2023E-3,5C000000,-0724,0834,12150,025.5,045.4,0.441,739.5,01.18,0.508
2016-12-01 03:01:00,1917E-3,5C000000,-0724,0832,11982,025.5,045.4,0.441,739.5,01.18,0.508
2016-12-01 03:02:00,2030E-3,5C000000,-0724,0833,12176,025.4,045.4,0.441,740.6,01.18,0.508
2016-12-01 03:03:00,1982E-3,5C000000,-0724,0833,12111,025.5,045.4,0.441,739.4,01.18,0.508
2016-12-01 03:04:00,1852E-3,5C000000,-0724,0833,12051,025.5,045.4,0.441,739.5,01.18,0.508
2016-12-01 03:05:00,1919E-3,5C000000,-0724,0834,12028,025.4,045.4,0.441,739.5,01.18,0.508
2016-12-01 03:06:00,1847E-3,5C000000,-0724,0833,12116,025.4,045.4,0.441,739.5,01.18,0.508
2016-12-01 03:07:00,1877E-3,5C000000,-0724,0833,12163,025.4,045.4,0.441,739.5,01.18,0.508
2016-12-01 03:08:00,1890E-3,5C000000,-0724,0833,12046,025.5,045.4,0.441,739.5,01.18,0.508
2016-12-01 03:09:00,1812E-3,5C000000,-0724,0833,12080,025.5,045.4,0.441,739.5,01.18,0.508
2016-12-01 03:10:00,1886E-3,5C000000,-0724,0833,12152,025.4,045.4,0.441,739.5,01.18,0.508
2016-12-01 03:11:00,1837E-3,5C000000,-0724,0833,12181,025.5,045.4,0.441,739.5,01.18,0.508
2016-12-01 03:12:00,1767E-3,5C000000,-0724,0834,12149,025.4,045.4,0.441,739.5,01.18,0.508
2016-12-01 03:13:00,1803E-3,5C000000,-0724,0833,11930,025.5,045.4,0.441,739.5,01.18,0.508
2016-12-01 03:14:00,1918E-3,5C000000,-0724,0832,11984,025.4,045.4,0.441,739.5,01.18,0.508
2016-12-01 03:15:00,1809E-3,5C000000,-0724,0833,12164,025.4,045.4,0.441,739.5,01.18,0.508
2016-12-01 03:16:00,1767E-3,5C000000,-0724,0833,12159,025.4,045.4,0.441,739.5,01.18,0.508
2016-12-01 03:17:00,1868E-3,5C000000,-0724,0833,12064,025.4,045.4,0.441,739.5,01.18,0.508
2016-12-01 03:18:00,1900E-3,5C000000,-0724,0833,12143,025.4,045.4,0.441,739.4,01.18,0.508
2016-12-01 03:19:00,1653E-3,5C000000,-0724,0833,12141,025.4,045.4,0.442,739.4,01.18,0.508
2016-12-01 03:20:00,1840E-3,5C000000,-0724,0834,12124,025.4,045.4,0.441,739.5,01.18,0.508
2016-12-01 03:21:00,1858E-3,5C000000,-0724,0833,12045,025.4,045.4,0.441,739.5,01.18,0.508
2016-12-01 03:22:00,1936E-3,5C000000,-0724,0833,12113,025.4,045.4,0.441,739.5,01.18,0.508
2016-12-01 03:23:00,1838E-3,5C000000,-0724,0833,12018,025.4,045.4,0.441,739.5,01.18,0.508
2016-12-01 03:24:00,1931E-3,5C000000,-0724,0833,12089,025.4,045.4,0.441,739.5,01.18,0.508
2016-12-01 03:25:00,2026E-3,5C000000,-0724,0834,12063,025.4,045.4,0.441,739.5,01.18,0.508
2016-12-01 03:26:00,2044E-3,5C000000,-0724,0833,12025,025.4,045.4,0.441,739.5,01.18,0.508
2016-12-01 03:27:00,1888E-3,5C000000,-0724,0833,12225,025.4,045.4,0.441,739.5,01.18,0.508
2016-12-01 03:28:00,1992E-3,5C000000,-0724,0833,12149,025.4,045.4,0.441,739.5,01.18,0.508
2016-12-01 03:29:00,1886E-3,5C000000,-0724,0833,12016,025.4,045.4,0.441,739.5,01.18,0.508
2016-12-01 03:30:00,1938E-3,5C000000,-0724,0833,12102,025.4,045.4,0.441,739.5,01.18,0.508
2016-12-01 03:31:00,1877E-3,5C000000,-0724,0833,12077,025.4,045.4,0.441,739.5,01.18,0.508
2016-12-01 03:32:00,1795E-3,5C000000,-0724,0833,12190,025.4,045.4,0.441,739.5,01.18,0.508
2016-12-01 03:33:00,2012E-3,5C000000,-0724,0832,12108,025.4,045.4,0.441,739.5,01.18,0.508
2016-12-01 03:34:00,1886E-3,5C000000,-0724,0833,12063,025.4,045.4,0.441,739.5,01.18,0.508
2016-12-01 03:35:00,1816E-3,5C000000,-0724,0833,11976,025.4,045.4,0.441,739.5,01.18,0.508
2016-12-01 03:36:00,1855E-3,5C000000,-0724,0833,12122,025.4,045.4,0.442,739.5,01.18,0.508
2016-12-01 03:37:00,1870E-3,5C000000,-0724,0834,12179,025.4,045.4,0.441,739.5,01.18,0.508
2016-12-01 03:38:00,1822E-3,5C000000,-0724,0833,12168,025.4,045.4,0.442,739.5,01.18,0.508
2016-12-01 03:39:00,2031E-3,5C000000,-0724,0833,12127,025.4,045.4,0.441,739.5,01.18,0.508
2016-12-01 03:40:00,1899E-3,5C000000,-0724,0833,12241,025.4,045.4,0.441,739.5,01.18,0.508
2016-12-01 03:41:00,1830E-3,5C000000,-0724,0833,12081,025.4,045.4,0.441,739.5,01.18,0.508
2016-12-01 03:42:00,1806E-3,5C000000,-0724,0833,12031,025.4,045.4,0.441,739.5,01.18,0.508
2016-12-01 03:43:00,1745E-3,5C000000,-0724,0833,12051,025.4,045.4,0.441,739.5,01.18,0.508
2016-12-01 03:44:00,1889E-3,5C000000,-0724,0833,12009,025.4,045.4,0.441,739.5,01.18,0.508
2016-12-01 03:45:00,1974E-3,5C000000,-0724,0833,12214,025.4,045.4,0.441,739.5,01.18,0.508
2016-12-01 03:46:00,1765E-3,5C000000,-0724,0833,12113,025.4,045.4,0.441,739.5,01.18,0.508
2016-12-01 03:47:00,1818E-3,5C000000,-0724,0834,12161,025.4,045.4,0.441,739.5,01.18,0.508
2016-12-01 03:48:00,1756E-3,5C000000,-0724,0833,12023,025.4,045.4,0.441,739.5,01.18,0.508
2016-12-01 03:49:00,1924E-3,5C000000,-0724,0833,12061,025.4,045.4,0.441,739.5,01.18,0.508
2016-12-01 03:50:00,1721E-3,5C000000,-0724,0833,12202,025.4,045.4,0.441,739.4,01.18,0.508
2016-12-01 03:51:00,1918E-3,5C000000,-0724,0833,12215,025.4,045.4,0.441,739.4,01.18,0.508
2016-12-01 03:52:00,1784E-3,5C000000,-0724,0833,12047,025.4,045.4,0.441,739.4,01.18,0.508
2016-12-01 03:53:00,1894E-3,5C000000,-0724,0833,12171,025.4,045.4,0.441,739.4,01.18,0.508
2016-12-01 03:54:00,1791E-3,5C000000,-0724,0833,12146,025.4,045.4,0.441,739.4,01.18,0.508
2016-12-01 03:55:00,1739E-3,5C000000,-0724,0833,12222,025.4,045.4,0.441,739.4,01.18,0.508
2016-12-01 03:56:00,1849E-3,5C000000,-0724,0833,12231,025.4,045.4,0.441,739.5,01.18,0.508
2016-12-01 03:57:00,1740E-3,5C000000,-0724,0833,12078,025.4,045.4,0.441,739.4,01.18,0.508
2016-12-01 03:58:00,1778E-3,5C000000,-0724,0833,12105,025.3,045.4,0.441,739.4,01.18,0.508
2016-12-01 03:59:00,1832E-3,5C000000,-0724,0833,12064,025.4,045.4,0.441,739.4,01.18,0.508
2016-12-01 04:00:00,1983E-3,5C000000,-0724,0833,12227,025.4,045.4,0.442,739.5,01.18,0.508
2016-12-01 04:01:00,1745E-3,5C000000,-0724,0832,12186,025.4,045.4,0.441,739.5,01.18,0.508
2016-12-01 04:02:00,1875E-3,5C000000,-0724,0834,12025,025.4,045.4,0.441,739.4,01.18,0.508
2016-12-01 04:03:00,1871E-3,5C000000,-0724,0833,12162,025.4,045.4,0.441,739.5,01.18,0.508
2016-12-01 04:04:00,1822E-3,5C000000,-0724,0833,12040,025.4,045.4,0.441,739.5,01.18,0.508
2016-12-01 04:05:00,1733E-3,5C000000,-0724,0833,12063,025.4,045.4,0.441,739.5,01.18,0.508
2016-12-01 04:06:00,1737E-3,5C000000,-0724,0833,12107,025.4,045.4,0.441,739.5,01.18,0.508
2016-12-01 04:07:00,1849E-3,5C000000,-0724,0834,11901,025.4,045.4,0.442,739.4,01.18,0.508
2016-12-01 04:08:00,1786E-3,5C000000,-0724,0834,12083,025.4,045.4,0.441,739.4,01.18,0.508
2016-12-01 04:09:00,1770E-3,5C000000,-0724,0834,12007,025.4,045.4,0.441,739.4,01.18,0.508
2016-12-01 04:10:00,1834E-3,5C000000,-0724,0834,12161,025.4,045.4,0.441,739.4,01.18,0.508
2016-12-01 04:11:00,1743E-3,5C000000,-0724,0833,11940,025.4,045.4,0.441,739.4,01.18,0.508
2016-12-01 04:12:00,1624E-3,5C000000,-0724,0833,12054,025.4,045.4,0.441,739.4,01.18,0.508
2016-12-01 04:13:00,1863E-3,5C000000,-0724,0833,12058,025.4,045.4,0.441,739.4,01.18,0.508
2016-12-01 04:14:00,1718E-3,5C000000,-0724,0833,12192,025.4,045.4,0.441,739.4,01.18,0.508
2016-12-01 04:15:00,1731E-3,5C000000,-0724,0834,12158,025.3,045.4,0.441,739.4,01.18,0.508
2016-12-01 04:16:00,1831E-3,5C000000,-0724,0833,12154,025.4,045.4,0.441,739.4,01.18,0.508
2016-12-01 04:17:00,1781E-3,5C000000,-0724,0833,12105,025.3,045.4,0.441,739.4,01.18,0.508
2016-12-01 04:18:00,1673E-3,5C000000,-0724,0833,11972,025.4,045.4,0.442,739.4,01.18,0.508
2016-12-01 04:19:00,1768E-3,5C000000,-0724,0834,12256,025.4,045.4,0.441,739.4,01.18,0.508
2016-12-01 04:20:00,1816E-3,5C000000,-0724,0833,12084,025.4,045.4,0.441,739.4,01.18,0.508